This demonstration page uses our WeatherBlox Daily Observations layout. Learn more.

Left ArrowRight Arrow

40.92945, -100.16068

Hourly Observations for September 25, 2022

Temp ( °F °C ) Dew Point ( °F °C ) Humidity (%) Winds ( mph kmh ) Pressure ( in mb ) Visibility ( mi km ) Precip ( " mm )
12:15 am 00:15 Clear 53 11.5 45 7 74 74 NW 7 11 30.13 1020 10 16 0.00 0.00
12:35 am 00:35 Clear 52 11.3 44 6.7 73 73 WNW 7 11 30.13 1020 10 16 0.00 0.00
12:55 am 00:55 Clear 52 11 45 7 76 76 WNW 7 11 30.14 1021 10 16 0.00 0.00
1:15 am 01:15 Clear 51 10.5 45 7.1 79 79 W 6 9 30.16 1021 10 16 0.00 0.00
1:35 am 01:35 Clear 52 11.2 44 6.5 73 73 NW 5 7 30.16 1021 10 16 0.00 0.00
1:55 am 01:55 Clear 51 10.7 43 6.3 74 74 WNW 7 11 30.17 1022 10 16 0.00 0.00
2:15 am 02:15 Clear 50 10 43 6.1 77 77 NW 8 13 30.18 1022 10 16 0.00 0.00
2:35 am 02:35 Clear 51 10.6 43 6.1 74 74 NW 7 11 30.18 1022 10 16 0.00 0.00
2:55 am 02:55 Clear 48 9 43 6 81 81 WNW 6 9 30.20 1023 10 16 0.00 0.00
3:15 am 03:15 Clear 47 8.4 43 6.3 87 87 WNW 5 7 30.22 1023 10 16 0.00 0.00
3:35 am 03:35 Clear 46 8 43 6.1 88 88 WNW 6 9 30.22 1023 10 16 0.00 0.00
3:55 am 03:55 Clear 46 7.8 43 6.2 90 90 NW 6 9 30.22 1023 10 16 0.00 0.00
4:15 am 04:15 Clear 45 7.3 43 6 91 91 WNW 7 11 30.24 1024 10 16 0.00 0.00
4:35 am 04:35 Clear 46 8 43 6.3 89 89 WNW 8 13 30.23 1024 10 16 0.00 0.00
4:55 am 04:55 Clear 47 8.1 43 6 87 87 W 7 11 30.24 1024 10 16 0.00 0.00
5:15 am 05:15 Clear 47 8.1 43 6 87 87 WNW 8 13 30.24 1024 10 16 0.00 0.00
5:35 am 05:35 Clear 46 7.6 42 5.8 88 88 WNW 8 13 30.25 1024 10 16 0.00 0.00
5:55 am 05:55 Clear 46 7.5 42 5.7 88 88 WNW 8 13 30.26 1025 10 16 0.00 0.00
6:15 am 06:15 Clear 45 7.2 42 5.5 89 89 WNW 7 11 30.27 1025 10 16 0.00 0.00
6:35 am 06:35 Clear 45 7 42 5.5 90 90 WNW 7 11 30.28 1025 10 16 0.00 0.00
6:55 am 06:55 Clear 44 6.7 42 5.5 92 92 WNW 8 13 30.28 1026 10 16 0.00 0.00
7:15 am 07:15 Clear 44 6.4 41 5.1 91 91 NW 6 9 30.30 1026 10 16 0.00 0.00
7:35 am 07:35 Sunny 43 6 41 5 93 93 WNW 7 11 30.30 1026 10 16 0.00 0.00
7:55 am 07:55 Sunny 44 6.8 42 5.5 91 91 WNW 9 15 30.30 1026 10 16 0.00 0.00
8:15 am 08:15 Sunny 46 7.6 42 5.8 88 88 WNW 7 11 30.29 1026 10 16 0.00 0.00
8:35 am 08:35 Sunny 48 8.9 43 6.2 83 83 WNW 7 11 30.29 1026 10 16 0.00 0.00
8:55 am 08:55 Sunny 50 10.1 44 6.5 78 78 W 7 11 30.28 1025 10 16 0.00 0.00
9:15 am 09:15 Sunny 53 11.5 44 6.7 72 72 WNW 9 15 30.27 1025 10 16 0.00 0.00
9:35 am 09:35 Sunny 55 12.9 44 6.9 67 67 WNW 9 15 30.26 1025 10 16 0.00 0.00
9:55 am 09:55 Sunny 58 14.2 45 7 62 62 WNW 9 15 30.25 1024 10 16 0.00 0.00
10:15 am 10:15 Sunny 61 15.9 46 7.6 58 58 WNW 9 15 30.24 1024 10 16 0.00 0.00
10:35 am 10:35 Sunny 64 17.6 46 7.6 52 52 WNW 9 15 30.23 1024 10 16 0.00 0.00
10:55 am 10:55 Sunny 65 18.6 44 6.8 46 46 WNW 10 17 30.22 1024 10 16 0.00 0.00
11:15 am 11:15 Sunny 68 20 45 7 43 43 WNW 12 19 30.21 1023 10 16 0.00 0.00
11:35 am 11:35 Sunny 70 21.2 43 6.3 38 38 WNW 12 19 30.19 1022 10 16 0.00 0.00
11:55 am 11:55 Sunny 71 21.8 43 6.1 36 36 WNW 10 17 30.19 1022 10 16 0.00 0.00
12:15 pm 12:15 Sunny 72 22.1 43 6 35 35 WNW 13 20 30.17 1022 10 16 0.00 0.00
12:35 pm 12:35 Sunny 73 22.6 42 5.7 33 33 W 12 19 30.16 1021 10 16 0.00 0.00
12:55 pm 12:55 Partly Cloudy 73 23 42 5.3 32 32 WNW 15 24 30.15 1021 10 16 0.00 0.00
1:15 pm 13:15 Partly Cloudy 74 23.4 42 5.3 31 31 NNW 16 26 30.14 1021 10 16 0.00 0.00
1:35 pm 13:35 Partly Cloudy 75 23.7 40 4.6 29 29 WNW 14 22 30.14 1021 10 16 0.00 0.00
1:55 pm 13:55 Partly Cloudy 75 23.9 39 3.9 27 27 NNW 13 20 30.13 1020 10 16 0.00 0.00
2:15 pm 14:15 Partly Cloudy 76 24.3 39 4.1 27 27 NW 12 19 30.11 1020 10 16 0.00 0.00
2:35 pm 14:35 Partly Cloudy 77 25.1 39 4.1 26 26 NW 10 17 30.10 1019 10 16 0.00 0.00
2:55 pm 14:55 Mostly Cloudy 75 24 39 3.8 27 27 NNW 10 17 30.10 1019 10 16 0.00 0.00
3:15 pm 15:15 Mostly Cloudy 77 24.9 39 3.9 26 26 NNW 15 24 30.08 1019 10 16 0.00 0.00
3:35 pm 15:35 Partly Cloudy 77 25.2 38 3.5 24 24 NW 14 22 30.08 1019 10 16 0.00 0.00
3:55 pm 15:55 Sunny 78 25.4 38 3.2 24 24 NW 18 30 30.07 1018 10 16 0.00 0.00
4:15 pm 16:15 Sunny 78 25.3 37 2.9 23 23 NNW 13 20 30.07 1018 10 16 0.00 0.00
4:35 pm 16:35 Sunny 78 25.6 37 2.9 23 23 NNW 15 24 30.05 1018 10 16 0.00 0.00
4:55 pm 16:55 Sunny 78 25.5 37 3 23 23 NNW 15 24 30.05 1017 10 16 0.00 0.00
5:15 pm 17:15 Sunny 77 25.2 38 3.1 24 24 NW 14 22 30.05 1018 10 16 0.00 0.00
5:35 pm 17:35 Sunny 76 24.7 37 2.9 24 24 NNW 9 15 30.05 1018 10 16 0.00 0.00
5:55 pm 17:55 Sunny 76 24.7 37 2.7 24 24 NNW 12 19 30.05 1018 10 16 0.00 0.00
6:15 pm 18:15 Sunny 76 24.3 37 2.8 25 25 NNW 9 15 30.06 1018 10 16 0.00 0.00
6:35 pm 18:35 Sunny 74 23.5 39 3.8 28 28 N 8 13 30.05 1018 10 16 0.00 0.00
6:55 pm 18:55 Sunny 72 22.1 41 4.8 32 32 NNW 5 7 30.07 1018 10 16 0.00 0.00
7:15 pm 19:15 Sunny 69 20.6 41 5.2 36 36 NNW 3 6 30.08 1019 10 16 0.00 0.00
7:35 pm 19:35 Clear 64 17.7 45 7 49 49 N 6 9 30.10 1019 10 16 0.00 0.00
7:55 pm 19:55 Clear 61 16.1 46 7.5 57 57 N 6 9 30.13 1020 10 16 0.00 0.00
8:15 pm 20:15 Clear 58 14.2 46 7.7 65 65 N 6 9 30.14 1021 10 16 0.00 0.00
8:35 pm 20:35 Clear 57 14 45 7.3 64 64 N 6 9 30.14 1021 10 16 0.00 0.00
8:55 pm 20:55 Clear 54 12.4 46 7.6 72 72 N 5 7 30.17 1022 10 16 0.00 0.00
9:15 pm 21:15 Clear 53 11.7 46 7.5 75 75 Calm 30.17 1022 10 16 0.00 0.00
9:35 pm 21:35 Clear 52 11.3 45 7 75 75 Calm 30.19 1022 10 16 0.00 0.00
9:55 pm 21:55 Clear 52 11.2 44 6.4 72 72 WNW 3 6 30.19 1022 10 16 0.00 0.00
10:15 pm 22:15 Clear 52 11 45 7 76 76 NW 5 7 30.19 1022 10 16 0.00 0.00
10:35 pm 22:35 Clear 50 10.1 43 6.3 77 77 NNW 3 6 30.21 1023 10 16 0.00 0.00
10:55 pm 22:55 Clear 48 8.7 43 6.2 84 84 Calm 30.22 1023 10 16 0.00 0.00
11:15 pm 23:15 Clear 49 9.2 43 5.9 80 80 Calm 30.23 1024 10 16 0.00 0.00
11:35 pm 23:35 Clear 48 9 43 6.1 82 82 NNE 3 6 30.23 1024 10 16 0.00 0.00
11:55 pm 23:55 Clear 46 7.6 42 5.6 87 87 Calm 30.25 1024 10 16 0.00 0.00

Powered by AerisWeather